Location: *
(46.0770°N, 1.6444°E)
Time: 00:46:07
(UTC+00:00)

SL-8 R/B - Pass Details

Date: 16 September 2019
Orbit: 657 x 667 km, 48.4° (Epoch: 20 October)

Event Time Altitude Azimuth Distance (km) Brightness Sun altitude
Rises 19:39:43 0° 251° (WSW) 2,979 7.8 -17.0°
Reaches altitude 10° 19:42:03 10° 252° (WSW) 2,070 6.9 -17.4°
Maximum altitude 19:46:51 88° 336° (NNW) 666 3.6 -18.1°
Enters shadow 19:49:21 29° 72° (ENE) 1,224 4.7 -18.5°
